User: anonymous   Login
Location: Oshawa
(43.9000°N, 78.8670°W)
Time: 18:08:32
(UTC-04:00)
Language:

Cosmos 1821 Rocket - Orbit

View from above orbital plane
View from above orbital plane
View from above satellite
View from above satellite

Ground track
Ground track

The orbit data is extracted from the following two-line orbital elements,

1 17526U 87017B   15147.53372322  .00000049  00000-0  34346-4 0  9996
2 17526 082.9045 241.8636 0038995 257.9819 179.3340 13.76752164402922
Epoch (UTC): 27 May 2015 12:48:33
Eccentricity: 0.0038995
inclination: 82.9045°
perigee height: 947 km
apogee height: 1004 km
right ascension of ascending node: 241.8636°
argument of perigee: 257.9819°
revolutions per day: 13.76752164
mean anomaly at epoch: 179.3340°
orbit number at epoch: 40292

The dashed part of the orbit path shows where the satellite is in the earth's shadow,  

DLR